Location: Constantia
(34.0183°S, 18.4411°E)
Time: 08:00:41
(UTC+00:00)

Cosmos 2263 Rocket - Pass Details

Date: 17 February 2020
Orbit: 822 x 850 km, 71.0° (Epoch: 30 March)

Event Time Altitude Azimuth Distance (km) Brightness Sun altitude
Exits shadow 01:56:43 55° 225° (SW) 1,013 2.5 -27.6°
Drops below altitude 10° 02:01:51 10° 168° (SSE) 2,482 5.3 -26.8°
Sets 02:04:22 0° 163° (SSE) 3,418 6.2 -26.4°
